When you browse on this site, cookies collect data to enhance your experience and personalize the content and advertising you see.
Visit our Privacy Policy to learn more. By continuing to use the site, you agree to this use of cookies and data.
  • In Romania
  • List of Countries
  • For 7 days
  • Water Temperature
  • Satellite Maps
  • Weather Map
  • Weather Widgets
  • user-avatar
    Login

    Hourly Weather Wurzburg

    Today, 18 March, Monday

    Time Temperature Precipitation Wind Pressure Humidity
    00:00 +1°C° 0 mm 5 mps 743 mmHg 83%
    01:00 +1°C° 0 mm 3 mps 743 mmHg 86%
    02:00 0°C° 0 mm 4 mps 743 mmHg 87%
    03:00 0°C° 0 mm 4 mps 743 mmHg 88%
    04:00 0°C° 0 mm 4 mps 743 mmHg 89%
    05:00 0°C° 0 mm 4 mps 744 mmHg 90%
    06:00 0°C° 0 mm 4 mps 744 mmHg 91%
    07:00 0°C° 0 mm 5 mps 744 mmHg 92%
    08:00 +1°C° 0 mm 5 mps 745 mmHg 87%
    09:00 +2°C° 0 mm 5 mps 745 mmHg 83%
    10:00 +2°C° 0 mm 6 mps 745 mmHg 78%
    11:00 +3°C° 0.1 mm 6 mps 746 mmHg 73%
    12:00 +4°C° 0.1 mm 6 mps 746 mmHg 68%
    13:00 +5°C° 0.1 mm 6 mps 746 mmHg 64%
    14:00 +7°C° 0.2 mm 5 mps 746 mmHg 62%
    15:00 +7°C° 0.2 mm 5 mps 746 mmHg 60%
    16:00 +7°C° 0.2 mm 5 mps 746 mmHg 58%
    17:00 +6°C° 0 mm 4 mps 747 mmHg 64%
    18:00 +5°C° 0 mm 3 mps 747 mmHg 70%
    19:00 +4°C° 0 mm 2 mps 747 mmHg 75%
    20:00 +4°C° 0 mm 2 mps 748 mmHg 77%
    21:00 +3°C° 0 mm 2 mps 749 mmHg 79%
    22:00 +3°C° 0 mm 2 mps 749 mmHg 81%
    23:00 +3°C° 0 mm 1 mps 750 mmHg 82%

    Tomorrow, 19 March, Tuesday

    Time Temperature Precipitation Wind Pressure Humidity
    00:00 +3°C° 0 mm 1 mps 750 mmHg 82%
    01:00 +3°C° 0 mm 1 mps 750 mmHg 83%
    02:00 +2°C° 0 mm 1 mps 750 mmHg 83%
    03:00 +1°C° 0 mm 0 mps 751 mmHg 83%
    04:00 +1°C° 0 mm 0 mps 751 mmHg 84%
    05:00 +1°C° 0 mm 0 mps 751 mmHg 83%
    06:00 +1°C° 0 mm 0 mps 752 mmHg 83%
    07:00 +1°C° 0 mm 0 mps 752 mmHg 83%
    08:00 +3°C° 0 mm 0 mps 753 mmHg 75%
    09:00 +6°C° 0 mm 1 mps 753 mmHg 68%
    10:00 +7°C° 0 mm 1 mps 753 mmHg 60%
    11:00 +8°C° 0 mm 1 mps 753 mmHg 56%
    12:00 +9°C° 0 mm 1 mps 753 mmHg 51%
    13:00 +10°C° 0 mm 1 mps 753 mmHg 46%
    14:00 +10°C° 0 mm 1 mps 753 mmHg 45%
    15:00 +10°C° 0 mm 1 mps 753 mmHg 44%
    16:00 +10°C° 0 mm 1 mps 753 mmHg 43%
    17:00 +9°C° 0 mm 1 mps 754 mmHg 49%
    18:00 +7°C° 0 mm 1 mps 754 mmHg 55%
    19:00 +5°C° 0 mm 0 mps 755 mmHg 60%
    20:00 +4°C° 0 mm 0 mps 755 mmHg 63%
    21:00 +4°C° 0 mm 0 mps 756 mmHg 65%
    22:00 +3°C° 0 mm 0 mps 756 mmHg 67%
    23:00 +3°C° 0 mm 0 mps 756 mmHg 69%

    Day after tomorrow, 20 March, Wednesday

    Time Temperature Precipitation Wind Pressure Humidity
    00:00 +2°C° 0 mm 0 mps 757 mmHg 71%
    01:00 +2°C° 0 mm 0 mps 757 mmHg 72%
    02:00 +2°C° 0 mm 0 mps 757 mmHg 73%
    03:00 +1°C° 0 mm 0 mps 757 mmHg 74%
    04:00 +1°C° 0 mm 0 mps 757 mmHg 75%
    05:00 +1°C° 0 mm 0 mps 757 mmHg 75%
    06:00 +1°C° 0 mm 0 mps 758 mmHg 74%
    07:00 +2°C° 0 mm 0 mps 758 mmHg 74%
    08:00 +4°C° 0 mm 0 mps 758 mmHg 68%
    09:00 +6°C° 0 mm 0 mps 758 mmHg 61%
    10:00 +8°C° 0 mm 0 mps 759 mmHg 55%
    11:00 +9°C° 0 mm 0 mps 759 mmHg 52%
    12:00 +10°C° 0 mm 0 mps 758 mmHg 48%
    13:00 +12°C° 0 mm 1 mps 758 mmHg 45%
    14:00 +12°C° 0 mm 1 mps 758 mmHg 44%
    15:00 +12°C° 0 mm 1 mps 758 mmHg 43%
    16:00 +12°C° 0 mm 1 mps 758 mmHg 42%
    17:00 +11°C° 0 mm 1 mps 758 mmHg 47%
    18:00 +9°C° 0 mm 1 mps 758 mmHg 52%
    19:00 +7°C° 0 mm 1 mps 758 mmHg 57%
    20:00 +7°C° 0 mm 1 mps 758 mmHg 59%
    21:00 +6°C° 0 mm 0 mps 759 mmHg 60%
    22:00 +5°C° 0 mm 0 mps 759 mmHg 61%
    23:00 +5°C° 0 mm 0 mps 759 mmHg 62%

    21 March, Thursday

    Time Temperature Precipitation Wind Pressure Humidity
    00:00 +4°C° 0 mm 0 mps 759 mmHg 64%
    01:00 +5°C° 0 mm 1 mps 758 mmHg 66%
    02:00 +5°C° 0 mm 1 mps 758 mmHg 67%
    03:00 +4°C° 0 mm 1 mps 758 mmHg 69%
    04:00 +4°C° 0 mm 1 mps 758 mmHg 70%
    05:00 +4°C° 0 mm 1 mps 758 mmHg 72%
    06:00 +4°C° 0 mm 1 mps 758 mmHg 73%
    07:00 +4°C° 0 mm 1 mps 759 mmHg 74%
    08:00 +6°C° 0 mm 1 mps 759 mmHg 68%
    09:00 +8°C° 0 mm 1 mps 759 mmHg 62%
    10:00 +9°C° 0 mm 2 mps 758 mmHg 56%
    11:00 +10°C° 0 mm 2 mps 758 mmHg 51%
    12:00 +12°C° 0 mm 2 mps 758 mmHg 47%
    13:00 +14°C° 0 mm 2 mps 757 mmHg 43%
    14:00 +14°C° 0 mm 2 mps 757 mmHg 43%
    15:00 +15°C° 0 mm 2 mps 756 mmHg 43%
    16:00 +15°C° 0 mm 2 mps 756 mmHg 43%
    17:00 +13°C° 0 mm 2 mps 756 mmHg 48%
    18:00 +12°C° 0 mm 1 mps 756 mmHg 53%
    19:00 +10°C° 0 mm 1 mps 756 mmHg 59%
    20:00 +9°C° 0 mm 1 mps 756 mmHg 60%
    21:00 +9°C° 0 mm 1 mps 756 mmHg 62%
    22:00 +8°C° 0 mm 1 mps 756 mmHg 63%
    23:00 +7°C° 0 mm 0 mps 756 mmHg 65%

    22 March, Friday

    Time Temperature Precipitation Wind Pressure Humidity
    00:00 +6°C° 0 mm 0 mps 756 mmHg 67%
    01:00 +6°C° 0 mm 0 mps 756 mmHg 69%
    02:00 +6°C° 0 mm 0 mps 756 mmHg 70%
    03:00 +5°C° 0 mm 0 mps 756 mmHg 71%
    04:00 +5°C° 0 mm 0 mps 755 mmHg 73%
    05:00 +5°C° 0 mm 0 mps 756 mmHg 73%
    06:00 +5°C° 0 mm 0 mps 756 mmHg 74%
    07:00 +5°C° 0 mm 0 mps 756 mmHg 74%
    08:00 +7°C° 0 mm 0 mps 756 mmHg 68%
    09:00 +9°C° 0 mm 0 mps 757 mmHg 62%
    10:00 +11°C° 0 mm 0 mps 757 mmHg 56%
    11:00 +13°C° 0 mm 0 mps 756 mmHg 52%
    12:00 +15°C° 0 mm 1 mps 756 mmHg 48%
    13:00 +16°C° 0 mm 1 mps 756 mmHg 45%
    14:00 +18°C° 0 mm 1 mps 756 mmHg 44%
    15:00 +18°C° 0 mm 1 mps 755 mmHg 44%
    16:00 +18°C° 0 mm 1 mps 755 mmHg 44%
    17:00 +16°C° 0 mm 1 mps 755 mmHg 50%
    18:00 +14°C° 0 mm 1 mps 756 mmHg 56%
    19:00 +12°C° 0 mm 1 mps 756 mmHg 62%
    20:00 +12°C° 0 mm 1 mps 756 mmHg 67%
    21:00 +11°C° 0 mm 1 mps 756 mmHg 73%
    22:00 +9°C° 0 mm 2 mps 756 mmHg 78%
    23:00 +9°C° 0 mm 2 mps 756 mmHg 82%

    23 March, Saturday

    Time Temperature Precipitation Wind Pressure Humidity
    00:00 +8°C° 0 mm 2 mps 756 mmHg 86%
    01:00 +8°C° 0 mm 2 mps 756 mmHg 91%
    02:00 +7°C° 0 mm 2 mps 756 mmHg 91%
    03:00 +7°C° 0 mm 2 mps 755 mmHg 92%
    04:00 +7°C° 0 mm 2 mps 755 mmHg 93%
    05:00 +7°C° 0 mm 2 mps 755 mmHg 93%
    06:00 +6°C° 0 mm 2 mps 755 mmHg 94%
    07:00 +7°C° 0 mm 1 mps 755 mmHg 94%
    08:00 +9°C° 0 mm 1 mps 755 mmHg 85%
    09:00 +10°C° 0 mm 2 mps 754 mmHg 76%
    10:00 +13°C° 0 mm 2 mps 754 mmHg 67%
    11:00 +15°C° 0 mm 2 mps 754 mmHg 62%
    12:00 +16°C° 0 mm 2 mps 754 mmHg 57%
    13:00 +18°C° 0 mm 1 mps 753 mmHg 52%
    14:00 +19°C° 0 mm 1 mps 753 mmHg 51%
    15:00 +19°C° 0 mm 1 mps 752 mmHg 51%
    16:00 +19°C° 0 mm 1 mps 752 mmHg 50%
    17:00 +18°C° 0 mm 1 mps 752 mmHg 56%
    18:00 +15°C° 0 mm 1 mps 752 mmHg 62%
    19:00 +13°C° 0 mm 1 mps 752 mmHg 68%
    20:00 +13°C° 0 mm 1 mps 752 mmHg 70%
    21:00 +12°C° 0 mm 1 mps 752 mmHg 72%
    22:00 +12°C° 0 mm 1 mps 752 mmHg 74%
    23:00 +11°C° 0 mm 1 mps 752 mmHg 76%
    Show more